Regional Weather Roundup
Issued by NWS State College, PA

Home | Current Version | Previous Version | Text Only | Print | Product List | Glossary On
Versions: 1 2 3 4 5 6 7 8 9 10 11 12 13 14 15 16 17 18 19 20 21 22 23 24 25 26 27 28 29 30 31 32 33 34 35 36 37 38 39 40 41 42 43 44 45 46 47 48 49 50
000
ASUS41 KCTP 141510
RWRCTP

REGIONAL WEATHER ROUNDUP
NATIONAL WEATHER SERVICE STATE COLLEGE PA
1000 AM EST SUN FEB 14 2016

Note: "fair" indicates few or no clouds below 12,000 feet with no
significant weather and/or obstructions to visibility.

* = STATION THAT DOES NOT REPORT PRECIPITATION /E.G. RAIN...SNOW...ETC/
    THUNDER OR FOG.

PAZ002>004-007>009-013>016-020>023-029>032-141600-
WESTERN PENNSYLVANIA

CITY           SKY/WX    TMP DP  RH WIND       PRES   REMARKS
ERIE           LGT SNOW  11   3  70 VRB3      30.47F
MEADVILLE      SUNNY     10   1  67 CALM      30.40S
FRANKLIN*      SUNNY      9   0  66 CALM      30.41S
NEW CASTLE     FAIR       8   4  83 CALM      30.47R
BEAVER COUNTY  NOT AVBL
BUTLER*        SUNNY      7   3  85 CALM      30.48R
PITTSBURGH INT MOSUNNY   10   3  73 CALM      30.45R
PITTSBURGH     SUNNY     11   2  67 SW5       30.44R WCI   3
INDIANA*       MOSUNNY    9   3  78 CALM      30.46R
LATROBE        SUNNY      7   1  78 SW6       30.47R WCI  -3
WASHINGTON CO* SUNNY      9   5  85 S3        30.45R
$$

PAZ004>006-010>012-017>019-024>028-033>037-041-042-045-046-049>053-141600-
CENTRAL PENNSYLVANIA

CITY           SKY/WX    TMP DP  RH WIND       PRES   REMARKS
BRADFORD       MIX PCPN   2  -6  69 NW9       30.31S WCI -13
DUBOIS         SUNNY      3   0  87 SW3       30.35F
CLEARFIELD     MIX PCPN   8  -3  61 NW8       30.39F WCI  -4
JOHNSTOWN      CLOUDY     4  -3  73 W6        30.31R WCI  -7
ALTOONA        MOSUNNY    8  -2  63 NW6       30.41S WCI  -2
STATE COLLEGE  SUNNY      9  -2  61 N6        30.43F WCI  -1
WILLIAMSPORT   SUNNY      5 -12  45 NW9       30.53F WCI  -9
SELINSGROVE    SUNNY      6  -7  54 NE8       30.54F WCI  -7
FT INDIANTOWN  SUNNY      9  -8  46 NW10      30.51F WCI  -5
CAPITAL CITY   SUNNY     14  -4  44 VRB5      30.52F WCI   6
HARRISBURG     MOSUNNY   12  -4  48 N7        30.52F WCI   1
YORK           MOSUNNY   12  -3  51 NW6       30.51F WCI   3
$$

PAZ038>040-043-044-047-048-054-055-060>062-067>071-141600-
EASTERN PENNSYLVANIA

CITY           SKY/WX    TMP DP  RH WIND       PRES   REMARKS
SCRANTON       SUNNY     -2 -14  56 N7        30.47S WCI -15
MOUNT POCONO   SUNNY     -6 -18  56 NW17G23   30.31R WCI -28
ALLENTOWN      SUNNY      6 -11  45 N6        30.53R WCI  -4
QUAKERTOWN*    SUNNY      5 -11  47 NW6       30.52R WCI  -6
READING        SUNNY      7  -9  48 N14G20    30.53S WCI -10
LANCASTER      SUNNY      9  -5  53 N7        30.53S WCI  -2
COATESVILLE    SUNNY      7  -8  51 N14       30.51S WCI -10
POTTSTOWN      SUNNY      8 -10  43 N12       30.55R WCI  -7
BLUE BELL        N/A     10  -8  44 NW5       30.53R WCI   2
DOYLESTOWN     SUNNY      5 -14  41 N10G18    30.52R WCI -10
WILLOW GROVE   NOT AVBL
NORTH PHILA    SUNNY     10 -11  38 NW12      30.58R WCI  -5
PHILADELPHIA   MOSUNNY   13 -13  30 NW14      30.56S WCI  -2
$$



USA.gov is the U.S. government's official web portal to all federal, state and local government web resources and services.